Location: Notre Dame Regional High School Observatory
(37.3056°N, 89.6097°W)
Time: 21:58:19
(UTC-05:00)

Okean 2 Rocket - Visible Passes

Search period start: 29 July 2014 00:00
Search period end: 08 August 2014 00:00
Orbit: 619 x 642 km, 82.5° (Epoch: 29 July)

Date Brightness Start Highest point End Pass type
(mag) Time Alt. Az. Time Alt. Az. Time Alt. Az.
29 Jul 6.9 05:02:15 10° ENE 05:03:08 11° ENE 05:04:01 10° E visible
30 Jul 6.1 05:21:02 10° NNE 05:24:32 22° ENE 05:28:00 10° SE visible
02 Aug 6.2 04:46:48 10° NNE 04:49:38 16° ENE 04:52:27 10° ESE visible
03 Aug 5.1 05:06:52 10° NNE 05:10:57 32° ENE 05:15:00 10° SE visible
04 Aug 3.6 05:27:36 10° N 05:32:07 69° E 05:36:36 10° SSE visible
05 Aug 6.3 04:12:58 10° NE 04:14:43 12° ENE 04:16:27 10° E visible
06 Aug 5.5 04:32:23 10° NNE 04:36:05 24° ENE 04:39:45 10° SE visible
07 Aug 4.1 04:52:54 10° N 04:57:19 50° E 05:01:41 10° SSE visible
